Medicine Lodge, KS

10:35 AM CST on December 12, 2019 (GMT -0600)
Medicine Lodge

Weather History for KP28 - October, 2019

Change the Weather History Date:

Monday, October 28, 2019

  Actual Average Record
Temperature  
Mean Temperature 31 °F 54 °F  
Max Temperature 39 °F 66 °F 88 °F (1922)
Min Temperature 22 °F 41 °F 18 °F (2017)
Degree Days  
Heating Degree Days 34 11  
Month to date heating degree days 286 200  
Since 1 July heating degree days 286 234  
Cooling Degree Days 0 0  
Month to date cooling degree days 23 37  
Year to date cooling degree days 1837 1768  
Moisture  
Dew Point 22 °F    
Average Humidity 72    
Maximum Humidity 96    
Minimum Humidity 48    
Precipitation  
Precipitation 0.00 in 0.07 in 2.22 in (1900)
Month to date precipitation 1.79 2.60  
Year to date precipitation 30.37 25.05  
Snow  
Snow 0.00 in 0.00 in - ()
Month to date snowfall 0.0 0.0  
Since 1 July snowfall 0.0 0.0  
Since 1 September snowfall 0.0 0.0  
Snow Depth 0.00 in    
Sea Level Pressure  
Sea Level Pressure 30.16 in    
Wind  
Wind Speed 11 mph (North)    
Max Wind Speed 21 mph    
Max Gust Speed 29 mph    
T = Trace of Precipitation, MM = Missing Value Source: NWS Daily Summary

Daily Weather History Graph

Daily Weather History Graph

Search for Another Location

Airport or City:

Astronomy

Oct. 28, 2019 Rise Set
Actual Time 7:54 AM CDT 6:41 PM CDT
Civil Twilight 7:27 AM CDT 7:07 PM CDT
Nautical Twilight 6:57 AM CDT 7:38 PM CDT
Astronomical Twilight 6:26 AM CDT 8:08 PM CDT
Moon 8:18 AM CDT (10/28) 7:27 PM CDT (10/28)
Length of Visible Light 11h 39m
Length of Day
10h 46m
New Moon, 0% of the Moon is Illuminated
Oct 28
New Moon
Nov 4
First Quarter
Nov 12
Full
Nov 19
Last Quarter
Nov 26
New

Hourly Weather History & Observations

Time (CDT) Temp. Windchill Dew Point Humidity Pressure Visibility Wind Dir Wind Speed Gust Speed Precip Events Conditions
12:56 AM 37.0 °F 28.5 °F 28.9 °F 73% 30.15 in - North 13.8 mph - N/A   Unknown
1:56 AM 36.0 °F 29.0 °F 28.9 °F 76% 30.15 in - North 9.2 mph - N/A   Unknown
2:56 AM 37.0 °F 29.8 °F 28.0 °F 70% 30.16 in - North 10.4 mph 23.0 mph N/A   Unknown
4:56 AM 35.1 °F 26.4 °F 24.1 °F 64% 30.16 in - North 12.7 mph 20.7 mph N/A   Unknown
5:56 AM 34.0 °F 25.5 °F 21.9 °F 61% 30.17 in - North 11.5 mph 19.6 mph N/A   Unknown
6:56 AM 33.1 °F 23.9 °F 21.0 °F 61% 30.17 in - North 12.7 mph - N/A   Unknown
7:56 AM 30.9 °F 21.7 °F 18.0 °F 59% 30.17 in - North 11.5 mph - N/A   Unknown
8:56 AM 30.9 °F 20.7 °F 17.1 °F 57% 30.18 in - North 13.8 mph - N/A   Unknown
9:56 AM 33.1 °F 22.6 °F 17.1 °F 52% 30.17 in - North 16.1 mph - N/A   Unknown
10:56 AM 35.1 °F 25.2 °F 19.0 °F 52% 30.17 in - North 16.1 mph 21.9 mph N/A   Unknown
12:56 PM 37.9 °F 31.5 °F 19.9 °F 48% 30.12 in - NNE 9.2 mph - N/A   Unknown
1:56 PM 37.9 °F 30.9 °F 21.0 °F 51% 30.10 in - NNE 10.4 mph - N/A   Unknown
2:56 PM 37.9 °F 30.5 °F 21.9 °F 53% 30.09 in - North 11.5 mph - N/A   Unknown
3:56 PM 39.0 °F 33.4 °F 21.0 °F 49% 30.09 in - North 8.1 mph - N/A   Unknown
4:56 PM 37.9 °F 29.6 °F 19.0 °F 47% 30.10 in - NNW 13.8 mph - N/A   Unknown
5:56 PM 35.1 °F 25.2 °F 21.0 °F 57% 30.14 in - NNW 16.1 mph 25.3 mph N/A   Unknown
6:56 PM 32.0 °F 21.6 °F 21.0 °F 64% 30.17 in - NNW 15.0 mph 23.0 mph N/A   Unknown
9:56 PM 28.0 °F 20.8 °F 21.9 °F 78% 30.22 in - North 6.9 mph - N/A   Unknown
10:56 PM 25.0 °F 20.7 °F 21.0 °F 85% 30.23 in - North 3.5 mph - N/A   Unknown
11:56 PM 23.0 °F 14.7 °F 21.0 °F 92% 30.22 in - North 6.9 mph - N/A   Unknown